Weather History for Jacksonville, NC

Change the Weather History Date:

Sunday, October 30, 2011

  Actual Average Record
Temperature  
Mean Temperature 44 °F -  
Max Temperature 57 °F 68 °F 86 °F (1996)
Min Temperature 30 °F 45 °F 28 °F (2001)
Degree Days  
Heating Degree Days 22    
Moisture  
Dew Point 33 °F    
Average Humidity 73    
Maximum Humidity 100    
Minimum Humidity 36    
Precipitation  
Precipitation 0.00 in - - ()
Sea Level Pressure  
Sea Level Pressure 30.24 in    
Wind  
Wind Speed 3 mph (North)    
Max Wind Speed 14 mph    
Max Gust Speed 20 mph    
Visibility 10 miles    
Events      
Averages and records for this station are not official NWS values.
T = Trace of Precipitation, MM = Missing Value Source: NWS Daily Summary

Daily Weather History Graph

Daily Weather History Graph

Search for Another Location

Airport:

Trip Planner

Search our weather history database for the weather conditions in past years. The results will help you decide how hot, cold, wet, or windy it might be!

Date:

Astronomy

Oct. 30, 2011 Rise Set
Actual Time 7:29 AM EDT 6:18 PM EDT
Civil Twilight 7:03 AM EDT 6:44 PM EDT
Nautical Twilight 6:33 AM EDT 7:14 PM EDT
Astronomical Twilight 6:03 AM EDT 7:43 PM EDT
Moon 11:39 AM EDT (10/30) 9:51 PM EDT (10/30)
Length of Visible Light 11h 41m
Length of Day
10h 49m
Waxing Crescent, 20% of the Moon is Illuminated
Oct 30
Waxing Crescent
Nov 2
First Quarter
Nov 10
Full
Nov 18
Last Quarter
Nov 25
New

Hourly Weather History & Observations

Time (EDT) Temp. Windchill Dew Point Humidity Pressure Visibility Wind Dir Wind Speed Gust Speed Precip Events Conditions
12:15 AM 41.0 °F - 37.4 °F 87% 30.12 in 10.0 mi Calm Calm - N/A   Clear
12:35 AM 39.2 °F - 35.6 °F 87% 30.13 in 10.0 mi Calm Calm - N/A   Clear
12:55 AM 39.2 °F - 35.6 °F 87% 30.13 in 10.0 mi Calm Calm - N/A   Clear
1:15 AM 39.2 °F - 35.6 °F 87% 30.13 in 10.0 mi Calm Calm - N/A   Clear
1:35 AM 39.2 °F - 35.6 °F 87% 30.14 in 10.0 mi Calm Calm - N/A   Clear
1:55 AM 37.4 °F 34.9 °F 35.6 °F 93% 30.14 in 10.0 mi WNW 3.5 mph - N/A   Clear
2:15 AM 37.4 °F - 35.6 °F 93% 30.15 in 10.0 mi Calm Calm - N/A   Clear
2:35 AM 37.4 °F - 35.6 °F 93% 30.15 in 10.0 mi Calm Calm - N/A   Clear
2:55 AM 37.4 °F 34.9 °F 35.6 °F 93% 30.16 in 10.0 mi WNW 3.5 mph - N/A   Clear
3:15 AM 37.4 °F - 33.8 °F 87% 30.16 in 10.0 mi Calm Calm - N/A   Clear
3:55 AM 32.0 °F - 30.2 °F 93% 30.17 in 10.0 mi Calm Calm - N/A   Clear
4:15 AM 33.8 °F - 32.0 °F 93% 30.18 in 10.0 mi Calm Calm - N/A   Clear
4:35 AM 32.0 °F - 30.2 °F 93% 30.17 in 10.0 mi Calm Calm - N/A   Clear
4:55 AM 33.8 °F 30.8 °F 32.0 °F 93% 30.18 in 10.0 mi West 3.5 mph - N/A   Clear
5:15 AM 33.8 °F - 32.0 °F 93% 30.18 in 10.0 mi Calm Calm - N/A   Clear
5:35 AM 32.0 °F - 30.2 °F 93% 30.19 in 10.0 mi Calm Calm - N/A   Clear
5:55 AM 32.0 °F - 30.2 °F 93% 30.20 in 10.0 mi Calm Calm - N/A   Clear
6:15 AM 30.2 °F - 30.2 °F 100% 30.21 in 10.0 mi Calm Calm - N/A   Clear
6:35 AM 32.0 °F - 30.2 °F 93% 30.22 in 10.0 mi Calm Calm - N/A   Clear
6:55 AM 33.8 °F - 32.0 °F 93% 30.23 in 10.0 mi Calm Calm - N/A   Clear
7:15 AM 30.2 °F - 30.2 °F 100% 30.24 in 10.0 mi Calm Calm - N/A   Clear
7:35 AM 32.0 °F - 30.2 °F 93% 30.24 in 8.0 mi Calm Calm - N/A   Clear
7:55 AM 32.0 °F - 30.2 °F 93% 30.26 in 10.0 mi Calm Calm - N/A   Clear
8:15 AM 33.8 °F - 32.0 °F 93% 30.27 in 10.0 mi Calm Calm - N/A   Clear
8:35 AM 33.8 °F - 33.8 °F 100% 30.28 in 10.0 mi Calm Calm - N/A   Clear
8:55 AM 37.4 °F - 35.6 °F 93% 30.29 in 10.0 mi Calm Calm - N/A   Clear
9:15 AM 39.2 °F 35.9 °F 35.6 °F 87% 30.30 in 10.0 mi NNW 4.6 mph - N/A   Clear
9:35 AM 42.8 °F 38.6 °F 37.4 °F 81% 30.31 in 10.0 mi North 6.9 mph - N/A   Clear
9:55 AM 42.8 °F 36.6 °F 35.6 °F 76% 30.32 in 10.0 mi North 11.5 mph - N/A   Clear
10:15 AM 44.6 °F 38.1 °F 35.6 °F 71% 30.32 in 10.0 mi NNE 13.8 mph - N/A   Clear
10:35 AM 46.4 °F 42.4 °F 35.6 °F 66% 30.32 in 10.0 mi North 8.1 mph - N/A   Clear
10:55 AM 46.4 °F 41.5 °F 35.6 °F 66% 30.32 in 10.0 mi NNE 10.4 mph - N/A   Clear
11:15 AM 48.2 °F - 35.6 °F 62% 30.32 in 10.0 mi NNE 9.2 mph - N/A   Clear
11:35 AM 50.0 °F - 35.6 °F 58% 30.32 in 10.0 mi North 9.2 mph - N/A   Clear
11:55 AM 51.8 °F - 35.6 °F 54% 30.32 in 10.0 mi North 9.2 mph - N/A   Clear
12:15 PM 51.8 °F - 33.8 °F 50% 30.31 in 10.0 mi NNE 11.5 mph 16.1 mph N/A   Clear
12:35 PM 53.6 °F - 33.8 °F 47% 30.31 in 10.0 mi NNW 10.4 mph 17.3 mph N/A   Clear
12:55 PM 53.6 °F - 32.0 °F 44% 30.31 in 10.0 mi North 9.2 mph 19.6 mph N/A   Clear
1:35 PM 55.4 °F - 30.2 °F 38% 30.30 in 10.0 mi North 10.4 mph - N/A   Clear
1:55 PM 55.4 °F - 30.2 °F 38% 30.29 in 10.0 mi NE 11.5 mph 17.3 mph N/A   Clear
2:15 PM 55.4 °F - 30.2 °F 38% 30.29 in 10.0 mi NNE 11.5 mph - N/A   Clear
2:35 PM 55.4 °F - 28.4 °F 36% 30.29 in 10.0 mi NNW 4.6 mph - N/A   Clear
2:55 PM 55.4 °F - 30.2 °F 38% 30.29 in 10.0 mi NNE 9.2 mph - N/A   Clear
3:15 PM 55.4 °F - 30.2 °F 38% 30.28 in 10.0 mi North 10.4 mph - N/A   Clear
3:35 PM 57.2 °F - 30.2 °F 36% 30.28 in 10.0 mi NNE 8.1 mph 18.4 mph N/A   Clear
3:55 PM 55.4 °F - 28.4 °F 36% 30.28 in 10.0 mi NNE 9.2 mph - N/A   Clear
4:35 PM 55.4 °F - 28.4 °F 36% 30.29 in 10.0 mi NNE 10.4 mph - N/A   Clear
4:55 PM 55.4 °F - 28.4 °F 36% 30.29 in 10.0 mi ENE 10.4 mph - N/A   Clear
5:15 PM 55.4 °F - 28.4 °F 36% 30.29 in 10.0 mi North 5.8 mph - N/A   Clear
5:35 PM 55.4 °F - 30.2 °F 38% 30.29 in 10.0 mi North 8.1 mph - N/A   Clear
5:55 PM 53.6 °F - 32.0 °F 44% 30.29 in 10.0 mi NNE 6.9 mph - N/A   Clear
6:15 PM 48.2 °F - 32.0 °F 54% 30.30 in 10.0 mi North 4.6 mph - N/A   Clear
6:35 PM 48.2 °F - 33.8 °F 58% 30.31 in 10.0 mi Calm Calm - N/A   Clear
7:15 PM 42.8 °F - 35.6 °F 76% 30.32 in 10.0 mi Calm Calm - N/A   Clear
7:35 PM 42.8 °F - 35.6 °F 76% 30.33 in 10.0 mi Calm Calm - N/A   Clear
7:55 PM 39.2 °F - 35.6 °F 87% 30.32 in 10.0 mi Calm Calm - N/A   Clear
8:15 PM 41.0 °F - 37.4 °F 87% 30.33 in 10.0 mi Calm Calm - N/A   Clear
8:35 PM 39.2 °F - 35.6 °F 87% 30.34 in 10.0 mi Calm Calm - N/A   Clear
8:55 PM 39.2 °F - 37.4 °F 93% 30.34 in 10.0 mi Calm Calm - N/A   Clear
9:15 PM 39.2 °F - 35.6 °F 87% 30.34 in 10.0 mi Calm Calm - N/A   Clear
9:35 PM 39.2 °F - 35.6 °F 87% 30.35 in 10.0 mi Calm Calm - N/A   Clear
9:55 PM 39.2 °F - 35.6 °F 87% 30.36 in 10.0 mi Calm Calm - N/A   Clear
10:15 PM 37.4 °F - 35.6 °F 93% 30.36 in 10.0 mi Calm Calm - N/A   Clear
10:35 PM 37.4 °F - 35.6 °F 93% 30.37 in 10.0 mi Calm Calm - N/A   Clear
10:55 PM 37.4 °F - 33.8 °F 87% 30.37 in 10.0 mi Calm Calm - N/A   Clear
11:15 PM 37.4 °F - 33.8 °F 87% 30.37 in 10.0 mi Calm Calm - N/A   Clear
11:35 PM 35.6 °F - 33.8 °F 93% 30.37 in 10.0 mi Calm Calm - N/A   Clear
11:55 PM 35.6 °F - 33.8 °F 93% 30.37 in 10.0 mi Calm Calm - N/A   Clear